Regional Weather Roundup
Issued by NWS Memphis, TN

Home | Current Version | Previous Version | Text Only | Print | Product List | Glossary On
Versions: 1 2 3 4 5 6 7 8 9 10 11 12 13 14 15 16 17 18 19 20 21 22 23 24 25 26 27 28 29 30 31 32 33 34 35 36 37 38 39 40 41 42 43 44 45 46 47 48 49 50
000
ASUS44 KMEG 021510
RWRMEG
MEMPHIS CWA HOURLY WEATHER ROUNDUP
NATIONAL WEATHER SERVICE MEMPHIS TN
900 AM CST MON MAR 02 2015

...WEST TENNESSEE...

CITY           SKY/WX    TMP DP  RH WIND       PRES   REMARKS
MEMPHIS INTL   CLOUDY    36  27  69 NE15      30.45S WCI  27
NWS MEMPHIS      N/A     35 N/A N/A MISG        N/A
JACKSON        PTSUNNY   35  27  72 NE15      30.47F WCI  25
LEXINGTON      SUNNY     34  27  75 NE12      30.46S WCI  25
SAVANNAH       CLOUDY    36  34  93 NE12      30.46F WCI  27
DYERSBURG      SUNNY     32  16  51 NE15      30.52F WCI  22
UNION CITY     SUNNY     28  23  80 NE13      30.51S WCI  18
PARIS          SUNNY     28  21  74 E12       30.51R WCI  18


...EASTERN ARKANSAS...

CITY           SKY/WX    TMP DP  RH WIND       PRES   REMARKS
JONESBORO      CLOUDY    31  25  78 NE17      30.49F WCI  19
WEST MEMPHIS   CLOUDY    35  28  75 NE14      30.46F WCI  26
BATESVILLE     CLOUDY    34  21  60 NE12      30.50S WCI  25
NEWPORT        CLOUDY    33  24  70 NE16      30.51S WCI  22
WALNUT RIDGE   CLOUDY    32  21  64 NE17      30.51F WCI  21
BLYTHEVILLE    PTSUNNY   32  24  72 NE17      30.51F WCI  21
NW BLYTHEVILLE PTSUNNY   32  23  69 NE17      30.52  WCI  21
SEARCY         CLOUDY    34  26  72 NE12      30.52R WCI  25
STUTTGART      CLOUDY    34  27  75 NE14      30.47R WCI  24
PINE BLUFF     LGT RAIN  34  30  85 N16       30.46R WCI  24
MONTICELLO     CLOUDY    35  33  92 NE7       30.43R FOG     WCI  29


...NORTH MISSISSIPPI...

CITY           SKY/WX    TMP DP  RH WIND       PRES   REMARKS
TUPELO         CLOUDY    40  37  89 NE15      30.42R WCI  32
OXFORD         CLOUDY    36  34  93 NE12      30.44R FOG     WCI  27
OLIVE BRANCH   CLOUDY    34  34 100 NE12G23   30.45R WCI  25
TUNICA         PTSUNNY   36  32  87 NE15G21   30.44F WCI  26
CLARKSDALE     CLOUDY    36  36 100 N9        30.44R WCI  29
CORINTH        CLOUDY    36  34  93 NE7G17    30.45R FOG     WCI  30
GREENWOOD        N/A    N/A N/A N/A MISG      30.38S
COLUMBUS       RAIN      45  45 100 N8        30.37S FOG
STARKVILLE     DRIZZLE   43  43 100 N6        30.38R
GOLDEN TRIANGL CLOUDY    45  43  93 N12       30.36S FOG


...SOUTHEAST MISSOURI...

CITY           SKY/WX    TMP DP  RH WIND       PRES   REMARKS
WEST PLAINS    MOSUNNY   29  20  69 NE9       30.46S WCI  20
POPLAR BLUFF   SUNNY     30  20  66 NE12      30.53R WCI  20
CAPE GIRARDEAU MOSUNNY   30  19  63 NE12      30.54F WCI  20


...NORTHWEST ALABAMA...

CITY           SKY/WX    TMP DP  RH WIND       PRES   REMARKS
MUSCLE SHOALS  CLOUDY    40  35  83 VRB6      30.46R


...MIDDLE TENNESSEE...

CITY           SKY/WX    TMP DP  RH WIND       PRES   REMARKS
NASHVILLE      PTSUNNY   34  30  85 NE12      30.49S WCI  25
CLARKSVILLE    SUNNY     31  23  72 NE12      30.51F WCI  22
COLUMBIA       CLOUDY   N/A N/A N/A NE10      30.45S


...WESTERN KENTUCKY...

CITY           SKY/WX    TMP DP  RH WIND       PRES   REMARKS
PADUCAH        SUNNY     30  19  63 E14       30.53R WCI  19
FORT CAMPBELL  SUNNY     31  22  70 NE12      30.50F WCI  22


...CENTRAL ARKANSAS...

CITY           SKY/WX    TMP DP  RH WIND       PRES   REMARKS
LITTLE ROCK    CLOUDY    35  26  69 NE15G23   30.49R WCI  25


SKY/WX REPORTED AS FAIR MEANS FEW OR NO CLOUDS BELOW
12 THOUSAND FEET.




USA.gov is the U.S. government's official web portal to all federal, state and local government web resources and services.